Hibbing, MN

8:27 PM CDT on March 30, 2017 (GMT -0500)
Chisholm-hibbing

Weather History for KHIB - October, 2011

Change the Weather History Date:

Friday, October 7, 2011

  Actual Average Record
Temperature  
Mean Temperature 66 °F -  
Max Temperature 78 °F 54 °F 82 °F (1966)
Min Temperature 55 °F 33 °F 15 °F (2001)
Cooling Degree Days 2    
Growing Degree Days 16 (Base 50)    
Moisture  
Dew Point 54 °F    
Average Humidity 59    
Maximum Humidity 94    
Minimum Humidity 45    
Precipitation  
Precipitation 0.22 in - - ()
Sea Level Pressure  
Sea Level Pressure 29.85 in    
Wind  
Wind Speed 11 mph (South)    
Max Wind Speed 22 mph    
Max Gust Speed 37 mph    
Visibility 9 miles    
Events Rain , Thunderstorm    
Averages and records for this station are not official NWS values.
T = Trace of Precipitation, MM = Missing Value Source: NWS Daily Summary

Daily Weather History Graph

Daily Weather History Graph

Search for Another Location

Airport or City:

Trip Planner

Search our weather history database for the weather conditions in past years. The results will help you decide how hot, cold, wet, or windy it might be!

Date:

Astronomy

Oct. 07, 2011 Rise Set
Actual Time 7:18 AM CDT 6:39 PM CDT
Civil Twilight 6:47 AM CDT 7:09 PM CDT
Nautical Twilight 6:12 AM CDT 7:45 PM CDT
Astronomical Twilight 5:36 AM CDT 8:21 PM CDT
Moon 4:35 PM CDT (10/7) 2:51 AM CDT (10/7)
Length of Visible Light 12h 22m
Length of Day
11h 21m
Waxing Gibbous, 83% of the Moon is Illuminated
Oct 7
Waxing Gibbous
Oct 11
Full
Oct 19
Last Quarter
Oct 26
New
Nov 2
First Quarter

Hourly Weather History & Observations

Time (CDT) Temp. Dew Point Humidity Pressure Visibility Wind Dir Wind Speed Gust Speed Precip Events Conditions
12:53 AM 55.9 °F 46.9 °F 72% 30.02 in 10.0 mi SE 6.9 mph - N/A   Partly Cloudy
1:53 AM 57.9 °F 48.0 °F 70% 30.00 in 10.0 mi SE 8.1 mph - N/A   Clear
2:53 AM 59.0 °F 48.9 °F 69% 29.99 in 10.0 mi SE 8.1 mph - N/A   Clear
3:53 AM 60.1 °F 48.9 °F 67% 29.99 in 10.0 mi SE 8.1 mph - N/A   Clear
4:53 AM 64.0 °F 48.9 °F 58% 29.97 in 10.0 mi SSE 8.1 mph - N/A   Clear
5:53 AM 63.0 °F 48.9 °F 60% 29.96 in 10.0 mi SSE 12.7 mph - N/A   Clear
6:53 AM 62.1 °F 48.9 °F 62% 29.96 in 10.0 mi SSE 10.4 mph 17.3 mph N/A   Clear
7:53 AM 63.0 °F 50.0 °F 63% 29.95 in 10.0 mi SSE 9.2 mph - N/A   Clear
8:53 AM 64.9 °F 50.0 °F 58% 29.93 in 10.0 mi SSE 10.4 mph - N/A   Clear
9:53 AM 66.9 °F 51.1 °F 57% 29.93 in 10.0 mi South 13.8 mph 25.3 mph N/A   Clear
10:53 AM 69.8 °F 51.8 °F 53% 29.90 in 10.0 mi SSE 10.4 mph 18.4 mph N/A   Scattered Clouds
11:53 AM 71.6 °F 51.8 °F 50% 29.87 in 10.0 mi South 13.8 mph 25.3 mph N/A   Partly Cloudy
12:53 PM 75.0 °F 53.1 °F 46% 29.83 in 10.0 mi SSE 11.5 mph 26.5 mph N/A   Clear
1:53 PM 77.0 °F 54.0 °F 45% 29.80 in 10.0 mi South 20.7 mph 32.2 mph N/A   Scattered Clouds
2:53 PM 77.0 °F 54.0 °F 45% 29.78 in 10.0 mi SSE 18.4 mph 31.1 mph N/A   Mostly Cloudy
3:53 PM 78.1 °F 55.0 °F 45% 29.76 in 10.0 mi South 18.4 mph 31.1 mph N/A   Partly Cloudy
4:53 PM 78.1 °F 55.9 °F 46% 29.75 in 10.0 mi South 15.0 mph 25.3 mph N/A   Mostly Cloudy
5:53 PM 77.0 °F 55.9 °F 48% 29.74 in 10.0 mi South 16.1 mph 32.2 mph N/A   Overcast
6:53 PM 75.9 °F 57.0 °F 52% 29.75 in 10.0 mi South 13.8 mph 27.6 mph N/A   Overcast
7:53 PM 75.9 °F 59.0 °F 56% 29.75 in 10.0 mi South 13.8 mph 28.8 mph 0.00 in   Overcast
8:53 PM 75.9 °F 59.0 °F 56% 29.73 in 10.0 mi South 16.1 mph 25.3 mph N/A   Partly Cloudy
9:53 PM 77.0 °F 57.9 °F 52% 29.73 in 10.0 mi South 19.6 mph 32.2 mph N/A   Scattered Clouds
10:41 PM 77.0 °F 57.2 °F 50% 29.73 in 10.0 mi South 21.9 mph 34.5 mph 0.00 in Thunderstorm Overcast
10:53 PM 77.0 °F 57.9 °F 52% 29.73 in 10.0 mi South 20.7 mph 36.8 mph 0.00 in Thunderstorm Overcast
11:08 PM 77.0 °F 57.2 °F 50% 29.75 in 10.0 mi SSW 15.0 mph 36.8 mph N/A   Overcast
11:43 PM 66.2 °F 64.4 °F 94% 29.78 in 6.0 mi Variable 4.6 mph - 0.13 in Rain , Thunderstorm Light Rain
11:53 PM 66.0 °F 64.0 °F 93% 29.81 in 3.0 mi West 10.4 mph 16.1 mph 0.22 in Rain , Thunderstorm Heavy Rain
11:58 PM 66.2 °F 64.4 °F 94% 29.82 in 2.5 mi WSW 11.5 mph 17.3 mph 0.04 in Rain Heavy Rain